Temperature
20 20 19 18 18 17 17 17 17 16 16 16 16 16 16 16 16 16 16 15 15 15 14 14 14 14 14 14 14 14 14 14 14 13 13 13 13 13 13 13 12 12 13
21 19 19 18 17 17 17 17 16 16 16 16 16 16 16 16 16 15 15 15 14 14 14 13 13 13 13 13 13 14 14 14 14 13 13 12 12 12 12 12 12 12 12
20 19 18 17 17 17 17 16 16 16 16 16 16 16 15 15 15 15 15 14 14 14 13 13 13 13 13 13 13 13 14 13 13 13 12 11 11 11 11 11 12 11 12
19 18 17 17 16 16 16 16 16 16 16 15 15 15 15 15 15 14 14 14 13 13 13 13 13 13 13 13 13 13 13 13 13 12 11 11 11 11 11 11 11 11 11
19 18 17 16 16 16 16 16 16 16 15 15 15 15 15 15 14 14 14 13 13 13 13 13 13 13 13 13 13 13 13 13 12 11 11 11 11 11 11 11 11 11 11
18 17 17 16 16 16 15 16 15 15 15 15 15 15 15 14 14 14 13 13 13 13 13 12 12 12 13 12 13 13 13 12 11 11 10 10 10 11 11 11 11 11 11
17 16 16 16 16 16 15 15 15 15 15 15 15 14 14 14 14 13 13 13 13 13 12 12 12 12 12 12 12 12 12 12 11 10 10 10 10 11 11 10 11 11 11
16 16 16 16 16 15 15 15 15 15 15 14 14 14 14 13 13 13 13 13 12 12 12 12 12 12 12 12 12 12 12 12 11 10 10 10 11 10 10 10 10 11 10
16 15 15 15 15 15 15 15 15 15 14 14 14 14 13 13 13 13 13 12 12 12 12 12 11 11 11 12 12 12 12 11 10 10 10 10 10 10 10 10 10 10 10
15 15 15 15 15 15 15 15 15 14 14 14 14 13 13 13 13 12 12 12 12 12 12 11 11 11 11 11 12 12 11 11 10 10 10 10 10 10 10 10 10 10 10
15 15 15 15 15 15 14 14 14 14 14 13 13 13 13 12 12 12 11 12 11 11 11 11 11 11 11 11 11 11 11 10 10 10 10 10 10 10 10 10 10 10 10
15 14 14 14 14 14 14 14 14 13 13 13 13 12 12 12 11 11 11 11 11 11 11 11 11 11 11 10 11 11 10 10 10 10 10 10 10 10 10 10 10 10 10
14 14 14 14 14 14 14 14 13 13 13 13 12 12 12 11 11 11 11 11 11 10 10 10 10 10 10 10 10 10 10 10 10 10 10 10 10 10 9 9 9 9 9
14 14 14 14 14 14 14 14 13 13 13 13 12 12 12 12 11 11 11 10 10 10 10 10 10 10 10 10 10 10 10 10 10 10 10 10 10 10 9 9 9 9 9
14 14 13 14 14 14 14 14 13 13 13 13 12 12 12 12 11 11 11 11 10 10 10 10 10 10 10 10 10 10 10 10 10 10 10 10 10 10 10 9 9 9 9
14 13 13 13 14 14 14 13 13 13 13 12 12 12 12 11 11 11 11 11 10 10 10 10 10 10 10 10 10 10 10 10 10 10 10 10 10 10 10 9 9 9 9
13 13 13 13 14 13 13 13 13 13 13 12 12 12 12 11 11 11 11 11 10 10 10 10 10 10 10 10 10 10 10 10 10 10 10 10 9 10 10 9 9 9 9
13 13 13 13 13 13 13 13 13 13 12 12 12 12 12 11 11 11 11 11 10 10 10 10 10 10 10 10 10 10 10 10 10 10 10 10 9 9 9 9 9 9 9
13 13 13 13 13 13 13 13 13 12 12 12 12 12 12 11 11 11 11 11 10 10 10 10 10 10 10 10 9 9 9 10 10 10 10 10 10 9 9 9 9 9 9
13 13 13 13 13 13 13 12 12 12 12 12 12 12 12 11 11 11 11 11 10 10 10 10 10 10 10 10 9 9 9 10 10 10 10 10 10 10 9 9 9 9 9
12 12 12 12 13 13 12 12 12 12 12 12 12 12 12 11 11 11 11 11 10 10 10 10 10 10 10 9 9 9 9 9 10 10 10 9 9 9 9 9 9 9 9
12 12 12 12 12 12 13 13 12 12 12 12 12 12 12 11 11 11 11 11 11 10 10 10 10 9 9 9 9 9 9 9 10 10 10 10 9 9 9 9 9 9 9
12 13 13 13 12 13 12 12 12 11 11 11 12 12 12 12 11 11 11 11 11 11 10 10 10 10 10 9 9 9 10 11 10 9 10 9 9 9 9 9 9 9 9
13 13 13 13 12 13 12 12 12 12 12 12 12 12 12 12 12 11 11 11 11 11 11 10 10 10 9 9 9 9 9 9 9 9 9 9 9 9 9 9 9 9 8
13 13 13 13 12 13 12 12 12 12 12 12 12 12 12 12 12 12 11 11 11 11 11 10 10 10 10 9 9 9 9 9 9 9 9 9 9 9 9 9 9 8 8
12 12 13 12 12 12 13 13 12 12 12 12 12 12 12 12 12 12 12 11 11 11 11 11 10 10 10 9 9 9 9 9 9 9 9 9 9 9 9 9 8 8 8
Wind_Speed
13 20 25 25 25 24 23 22 22 21 21 20 20 19 19 18 18 17 17 16 16 16 16 16 16 16 17 17 17 17 17 16 16 16 15 15 15 14 14 12 11 14 15
16 23 26 25 26 25 24 23 22 21 21 20 20 19 19 18 17 17 16 16 16 16 16 16 16 16 16 16 16 16 16 15 15 14 12 13 14 14 14 15 14 13 13
17 22 26 26 26 25 24 23 22 22 21 20 20 19 19 18 17 17 17 16 16 16 16 16 16 16 16 16 16 15 15 14 13 11 9 12 13 14 14 14 14 13 13
18 21 24 26 26 25 24 23 23 22 21 20 20 19 19 19 18 17 17 16 16 16 16 16 16 16 16 15 15 15 14 13 11 7 9 10 11 13 13 13 13 13 14
17 21 23 26 25 25 24 24 23 22 21 20 20 19 19 18 18 17 17 16 16 16 16 16 16 15 15 15 15 14 13 12 8 8 10 10 10 12 12 12 12 12 13
17 20 24 26 26 25 24 24 23 22 21 20 20 19 19 18 17 17 17 16 16 16 16 16 15 15 14 14 14 13 12 9 7 9 9 9 10 11 11 11 12 12 12
16 19 24 26 26 25 24 24 23 22 21 20 20 19 19 18 18 18 17 16 16 16 16 16 14 14 13 13 13 12 10 6 8 8 8 9 10 10 11 11 12 12 12
15 18 22 25 25 24 24 24 23 22 21 21 20 19 19 19 18 17 17 16 15 15 15 15 14 13 13 12 12 11 8 5 7 8 8 9 9 10 10 11 11 11 11
15 17 18 23 24 23 23 23 23 22 21 20 20 19 19 19 18 17 16 16 15 14 14 14 13 13 12 11 11 10 8 3 6 7 7 8 8 9 9 10 10 10 10
14 16 18 20 22 22 22 23 22 22 21 20 20 19 18 18 17 17 16 15 15 14 13 13 13 12 11 10 10 9 6 3 6 6 6 7 7 7 8 8 8 8 8
14 15 17 18 19 20 20 22 22 21 20 20 18 19 18 16 16 15 15 15 14 13 13 12 12 12 11 10 9 7 4 4 5 4 5 6 5 6 6 6 6 6 7
17 18 17 18 18 18 17 19 18 18 19 18 17 19 16 14 13 13 15 14 13 13 12 12 12 12 8 8 8 6 4 4 3 4 5 5 4 4 5 5 5 5 5
17 16 17 17 17 17 14 14 12 13 15 16 17 17 14 13 12 12 12 12 12 12 11 11 10 8 6 5 5 4 3 3 2 3 4 4 3 3 4 4 3 4 4
16 17 17 17 16 16 15 13 13 11 11 11 15 17 14 10 10 11 9 10 10 9 8 8 6 7 6 6 5 4 4 2 2 2 3 3 2 2 2 2 2 3 3
16 17 17 17 17 16 14 12 12 12 12 13 13 15 14 10 10 10 9 9 9 9 9 7 7 7 6 6 5 4 4 3 2 2 2 3 2 2 1 1 2 2 3
17 17 17 17 18 17 14 13 12 12 12 13 13 15 15 12 10 10 9 9 9 9 8 8 7 6 5 5 5 4 4 3 3 2 2 2 1 1 2 2 2 3 3
18 18 17 17 17 18 16 15 12 12 13 12 12 16 16 14 13 11 9 9 9 9 9 7 7 6 5 5 5 4 3 3 3 3 2 2 2 1 1 2 3 3 4
17 18 18 14 17 18 16 15 12 13 13 12 13 14 16 15 14 11 9 9 10 9 8 7 6 6 5 5 5 4 4 3 4 3 3 3 2 2 1 1 3 4 4
17 18 18 17 17 17 16 14 13 13 13 12 13 13 15 16 15 12 9 9 11 9 8 7 7 7 6 5 4 4 4 4 4 4 4 4 4 3 3 1 2 3 4
17 18 19 18 16 16 14 13 11 12 12 12 12 13 16 15 16 14 10 11 11 9 8 8 8 7 5 5 4 4 4 4 4 5 5 5 4 5 5 4 4 3 4
16 18 19 18 17 15 14 14 14 14 13 12 12 15 16 16 17 14 10 11 11 10 10 10 8 8 6 5 4 4 5 6 6 5 5 5 5 5 5 5 5 5 4
17 18 19 20 19 18 15 15 13 13 11 12 11 14 17 17 17 14 14 11 12 10 11 11 10 7 6 6 5 4 3 5 5 5 5 5 6 5 5 6 6 6 6
18 19 18 20 19 19 18 13 11 10 9 10 13 13 16 17 17 16 15 13 12 12 11 12 12 11 8 7 7 5 3 3 2 4 5 6 6 5 5 6 6 7 7
17 17 19 19 19 19 18 17 18 16 15 15 14 13 15 17 17 17 16 15 14 12 12 12 12 11 10 8 7 6 5 3 3 2 4 5 6 6 6 5 6 6 7
15 15 17 18 19 19 20 21 20 18 16 13 14 16 16 16 17 17 17 16 15 13 14 13 13 13 10 9 7 6 6 5 6 5 4 4 4 5 5 6 6 6 6
11 13 15 17 18 19 20 22 22 22 19 17 17 16 15 13 14 18 17 16 16 14 14 14 14 15 12 11 9 8 6 5 6 6 6 6 6 4 5 5 5 5 5
Wind_Direction
171 167 167 165 161 159 157 155 152 149 147 145 143 140 136 132 128 125 123 121 119 117 115 112 108 104 100 96 93 89 86 83 80 77 76 76 76 73 68 61 64 66 60
164 166 166 165 162 160 158 156 152 149 148 146 145 141 138 134 131 128 127 125 123 121 118 114 110 106 102 98 95 92 88 85 83 81 82 81 75 72 69 64 60 64 62
163 166 166 164 162 160 158 156 152 151 149 148 146 144 140 137 134 133 130 128 126 123 118 114 111 107 103 101 97 94 90 87 84 84 89 82 78 72 68 65 62 62 61
164 166 167 163 162 161 159 156 153 152 151 149 147 144 142 140 138 136 133 131 127 123 119 114 112 110 107 104 100 95 92 88 84 85 80 76 76 71 66 64 62 62 62
167 168 165 163 162 161 160 158 155 153 152 150 148 147 145 143 141 139 135 132 128 125 121 117 113 110 110 107 103 98 93 89 87 82 79 74 74 71 67 68 66 63 60
170 169 165 164 164 162 161 159 157 155 154 153 151 149 147 145 143 138 135 133 130 128 125 121 117 113 112 110 106 101 96 95 101 82 78 73 74 72 70 71 67 63 61
173 171 167 166 165 163 162 160 158 157 156 155 153 151 149 145 141 137 135 134 133 131 128 124 122 119 116 114 109 105 99 89 87 86 79 74 73 72 72 69 66 65 64
175 172 168 167 165 164 164 162 160 159 158 157 155 153 149 146 143 140 138 136 136 134 131 128 127 123 120 115 111 106 101 97 97 86 79 74 72 72 71 71 67 64 62
177 174 171 170 168 166 164 162 161 160 159 158 157 154 150 148 145 143 141 139 139 137 134 133 131 127 123 119 114 107 100 82 97 85 80 74 70 74 72 71 66 63 62
180 180 176 174 172 170 167 162 161 161 159 159 156 151 148 148 148 145 145 144 143 141 140 138 135 130 126 122 116 111 116 146 97 93 80 75 69 72 73 72 68 63 59
185 186 183 178 174 171 169 164 163 162 160 157 156 150 151 156 153 152 147 147 147 145 144 142 138 133 129 124 119 123 150 121 104 90 80 63 66 74 78 74 69 66 59
190 190 187 183 176 171 167 166 168 167 165 167 165 163 165 161 156 149 142 146 146 146 145 141 136 139 150 142 138 162 142 127 121 107 86 53 59 74 76 77 70 62 53
193 191 190 185 179 173 169 168 168 168 168 170 169 168 164 158 152 153 154 153 154 156 155 147 153 158 162 151 157 160 142 139 131 116 96 53 36 60 70 70 65 57 45
199 195 194 187 183 177 172 170 169 169 169 169 171 169 166 163 163 162 164 164 164 165 159 164 165 164 166 166 170 165 163 170 153 125 90 52 28 42 51 48 48 39 27
204 200 196 192 186 181 176 173 173 173 172 171 170 173 172 168 169 167 167 167 168 166 166 168 172 170 173 173 177 179 179 184 178 166 122 78 38 16 359 346 356 356 356
207 203 197 195 190 184 180 177 176 175 173 173 174 178 177 174 173 172 170 170 170 171 172 176 179 178 179 182 184 189 194 194 201 195 169 138 105 343 328 318 319 326 329
208 203 199 198 192 188 184 180 178 176 176 176 177 180 180 178 176 175 175 174 173 174 175 179 180 185 182 184 194 198 206 215 204 204 206 227 205 156 314 314 313 314 317
209 204 201 198 195 191 186 181 178 179 179 178 179 181 183 181 180 180 178 179 176 176 179 181 184 188 189 196 200 201 210 204 219 221 220 227 238 241 220 289 304 305 304
210 204 201 198 197 193 187 182 180 180 182 182 182 184 185 185 185 185 185 183 180 182 186 186 191 194 194 198 204 211 216 217 222 224 227 231 240 251 259 226 266 293 300
209 204 200 198 199 193 187 182 180 182 186 186 186 188 186 188 189 190 189 187 185 187 190 191 192 196 199 197 202 217 221 227 229 230 233 234 237 245 253 260 260 256 269
207 203 199 198 197 191 188 184 184 187 187 189 190 190 190 191 191 193 191 190 191 194 194 194 192 192 195 193 202 218 223 228 233 229 232 239 238 240 248 254 260 268 266
208 205 202 200 198 195 194 190 191 189 190 191 190 194 195 195 194 195 195 193 194 196 196 197 193 194 190 193 206 216 229 217 217 225 230 237 241 234 239 246 252 258 269
210 207 203 201 201 198 196 189 185 184 185 191 195 196 198 197 197 197 197 196 196 198 199 199 197 197 195 196 210 217 226 231 218 204 218 228 232 235 241 244 249 253 261
213 208 204 201 202 201 196 192 188 191 195 198 195 196 197 198 199 200 200 200 199 201 202 202 202 202 201 200 204 225 243 262 245 232 210 223 233 244 249 247 249 250 255
217 208 204 202 202 202 199 195 194 201 204 199 195 196 197 198 201 202 201 202 202 204 206 204 202 204 205 208 203 202 218 231 243 251 254 248 244 242 247 254 253 255 254
219 210 205 204 204 202 202 200 199 202 202 198 196 196 197 198 201 202 202 204 206 206 206 206 205 206 208 211 210 208 208 214 219 227 247 261 267 260 250 249 250 250 253
Height
1487 1490 1493 1496 1500 1503 1507 1510 1513 1515 1517 1519 1521 1522 1524 1525 1526 1527 1528 1529 1530 1531 1531 1532 1532 1532 1532 1532 1532 1532 1532 1532 1532 1532 1531 1531 1531 1530 1530 1529 1529 1529 1527
1486 1489 1492 1495 1499 1502 1506 1509 1512 1515 1517 1519 1521 1523 1524 1525 1527 1528 1529 1530 1531 1531 1532 1532 1533 1533 1533 1533 1533 1533 1533 1533 1533 1533 1533 1533 1532 1532 1531 1530 1530 1529 1529
1485 1488 1491 1495 1499 1502 1505 1509 1512 1515 1517 1519 1521 1523 1524 1525 1527 1528 1529 1530 1531 1532 1533 1533 1534 1534 1534 1534 1534 1534 1534 1534 1534 1534 1535 1535 1534 1533 1532 1532 1531 1531 1530
1485 1488 1491 1494 1498 1502 1505 1508 1511 1514 1517 1519 1521 1523 1524 1526 1527 1528 1529 1530 1531 1532 1533 1534 1534 1535 1535 1535 1535 1535 1535 1535 1535 1536 1537 1537 1536 1535 1534 1533 1533 1532 1531
1485 1488 1491 1494 1498 1501 1505 1508 1511 1513 1516 1519 1521 1522 1524 1526 1527 1529 1530 1531 1532 1533 1534 1534 1535 1535 1536 1536 1536 1536 1536 1536 1537 1537 1537 1537 1537 1536 1535 1534 1534 1533 1533
1485 1487 1490 1494 1497 1501 1504 1507 1510 1513 1515 1518 1520 1522 1524 1526 1527 1529 1530 1531 1532 1533 1534 1535 1536 1536 1536 1537 1537 1537 1537 1538 1539 1539 1539 1539 1538 1537 1536 1536 1535 1534 1534
1484 1487 1490 1493 1497 1500 1504 1507 1509 1512 1515 1517 1520 1522 1524 1525 1527 1528 1530 1531 1532 1534 1535 1535 1536 1537 1537 1537 1538 1538 1538 1539 1540 1540 1540 1540 1539 1538 1538 1537 1536 1536 1535
1483 1486 1489 1492 1496 1500 1503 1506 1509 1512 1514 1517 1519 1521 1523 1525 1527 1528 1530 1531 1533 1534 1535 1536 1537 1538 1538 1538 1539 1539 1540 1540 1541 1541 1541 1541 1540 1539 1539 1538 1537 1537 1536
1482 1485 1488 1492 1495 1499 1502 1505 1508 1511 1514 1516 1518 1521 1523 1525 1527 1528 1530 1531 1533 1534 1535 1536 1537 1538 1539 1539 1540 1540 1540 1541 1543 1542 1542 1542 1541 1540 1540 1539 1538 1537 1536
1481 1484 1487 1490 1494 1497 1501 1504 1507 1510 1513 1515 1518 1520 1522 1525 1526 1528 1530 1531 1533 1534 1535 1536 1538 1538 1539 1540 1540 1541 1541 1542 1544 1543 1543 1542 1542 1541 1540 1540 1539 1538 1537
1479 1482 1485 1488 1492 1495 1499 1502 1506 1509 1512 1514 1517 1519 1522 1524 1526 1528 1530 1531 1533 1534 1535 1537 1538 1539 1540 1540 1541 1541 1542 1543 1544 1544 1543 1542 1542 1542 1541 1540 1539 1538 1537
1475 1479 1482 1486 1489 1493 1496 1500 1504 1507 1510 1513 1516 1518 1521 1524 1526 1527 1529 1531 1533 1534 1535 1536 1538 1539 1540 1541 1541 1542 1543 1543 1544 1544 1543 1543 1542 1542 1541 1540 1539 1539 1538
1472 1475 1479 1483 1486 1490 1493 1497 1501 1504 1508 1511 1514 1517 1519 1522 1524 1526 1528 1530 1532 1533 1535 1536 1538 1539 1540 1541 1542 1543 1543 1544 1544 1544 1543 1543 1542 1542 1541 1541 1540 1539 1538
1470 1472 1476 1480 1483 1487 1491 1494 1498 1501 1505 1508 1511 1514 1517 1520 1522 1524 1527 1529 1531 1532 1534 1535 1537 1538 1540 1540 1541 1542 1543 1543 1544 1543 1543 1542 1542 1542 1541 1540 1540 1539 1537
1466 1469 1472 1476 1480 1483 1487 1491 1495 1499 1502 1506 1509 1512 1515 1517 1520 1523 1525 1527 1529 1531 1532 1534 1536 1537 1539 1540 1541 1542 1542 1542 1543 1543 1542 1542 1541 1541 1540 1540 1539 1538 1537
1462 1465 1468 1472 1476 1480 1484 1488 1492 1496 1500 1503 1506 1509 1512 1515 1518 1521 1523 1525 1527 1529 1531 1533 1535 1536 1538 1539 1540 1541 1541 1542 1542 1542 1541 1541 1540 1540 1539 1539 1538 1537 1536
1458 1461 1464 1468 1472 1476 1480 1484 1489 1493 1497 1500 1504 1507 1510 1513 1516 1519 1521 1523 1525 1527 1529 1532 1534 1535 1536 1537 1539 1539 1540 1540 1540 1540 1540 1540 1539 1539 1538 1537 1536 1535 1534
1454 1457 1460 1464 1468 1472 1476 1480 1485 1489 1493 1497 1501 1504 1507 1510 1513 1516 1519 1521 1523 1525 1527 1529 1531 1533 1535 1536 1538 1538 1538 1538 1539 1539 1538 1538 1538 1537 1536 1536 1535 1534 1533
1448 1452 1455 1459 1463 1468 1472 1476 1481 1486 1490 1494 1497 1501 1504 1507 1510 1514 1516 1519 1521 1523 1525 1527 1530 1532 1533 1534 1536 1536 1537 1537 1537 1537 1537 1536 1536 1535 1535 1534 1533 1532 1530
1444 1447 1451 1454 1459 1463 1468 1472 1477 1481 1486 1489 1493 1497 1501 1504 1507 1511 1513 1516 1518 1521 1523 1525 1527 1529 1531 1532 1533 1534 1534 1535 1535 1535 1534 1534 1533 1533 1532 1531 1530 1529 1528
1438 1442 1445 1449 1453 1458 1462 1465 1470 1475 1480 1485 1489 1493 1497 1500 1504 1507 1510 1513 1515 1518 1520 1523 1525 1527 1528 1530 1531 1532 1532 1532 1532 1532 1532 1532 1531 1531 1530 1529 1528 1527 1526
1432 1435 1439 1444 1448 1452 1456 1460 1466 1471 1476 1481 1485 1489 1492 1496 1500 1503 1506 1509 1512 1515 1517 1520 1522 1524 1525 1527 1529 1531 1532 1532 1530 1529 1529 1529 1529 1528 1527 1526 1525 1524 1523
1426 1429 1433 1437 1441 1446 1451 1456 1462 1467 1472 1476 1479 1483 1487 1491 1495 1499 1502 1505 1508 1511 1513 1516 1518 1520 1522 1524 1526 1528 1529 1529 1529 1527 1526 1526 1526 1526 1525 1524 1523 1521 1520
1420 1424 1428 1432 1436 1441 1445 1450 1454 1459 1463 1467 1473 1478 1482 1487 1490 1494 1498 1501 1504 1507 1509 1512 1514 1517 1519 1520 1522 1523 1525 1526 1527 1526 1525 1524 1523 1523 1522 1521 1520 1518 1517
1416 1419 1422 1427 1430 1435 1439 1444 1449 1454 1459 1465 1469 1473 1477 1481 1485 1489 1493 1496 1499 1502 1505 1508 1510 1512 1514 1516 1518 1519 1521 1522 1522 1523 1523 1522 1521 1520 1519 1518 1517 1515 1514
1412 1414 1417 1421 1424 1428 1433 1438 1442 1448 1454 1459 1463 1467 1471 1475 1479 1483 1487 1491 1494 1497 1500 1503 1505 1508 1510 1512 1514 1515 1517 1518 1518 1519 1519 1519 1518 1517 1516 1515 1513 1512 1510